This demonstration page uses our WeatherBlox Daily Observations layout. Learn more.

Hourly Observations for February 24, 2019

Temp ( °F °C ) Dew Point ( °F °C ) Humidity (%) Winds ( mph kmh ) Pressure ( in mb ) Visibility ( mi km ) Precip ( " mm )
12:15 am 00:15 Clear 25 -4.1 15 -9.5 66 66 NW 17 28 30.15 1021 10 16.0934 0 0
12:35 am 00:35 Clear 22 -5.3 15 -9.5 73 73 WNW 14 22 30.2 1023 10 16.0934 0 0
12:55 am 00:55 Clear 22 -5.8 14 -10.2 71 71 NW 12 19 30.21 1023 10 16.0934 0 0
1:15 am 01:15 Clear 22 -5.8 14 -10.2 71 71 WNW 9 15 30.22 1023 10 16.0934 0 0
1:35 am 01:35 Clear 21 -6.3 12 -10.9 70 70 WNW 10 17 30.24 1024 10 16.0934 0 0
1:55 am 01:55 Clear 19 -7 12 -11.1 73 73 NW 10 17 30.24 1024 10 16.0934 0 0
2:15 am 02:15 Clear 17 -8.1 11 -11.8 75 75 WNW 10 17 30.27 1025 10 16.0934 0 0
2:35 am 02:35 Clear 19 -7.4 11 -11.4 73 73 WNW 12 19 30.27 1025 10 16.0934 0 0
2:55 am 02:55 Clear 19 -7.1 11 -11.4 72 72 WNW 10 17 30.28 1025 10 16.0934 0 0
3:15 am 03:15 Clear 17 -8.1 10 -12 74 74 WNW 12 19 30.3 1026 10 16.0934 0 0
3:35 am 03:35 Clear 16 -8.7 10 -12 77 77 NW 10 17 30.29 1026 10 16.0934 0 0
3:55 am 03:55 Clear 18 -7.7 11 -11.4 75 75 NW 8 13 30.29 1026 10 16.0934 0 0
4:15 am 04:15 Clear 14 -9.8 9 -12.6 80 80 NW 9 15 30.32 1027 10 16.0934 0 0
4:35 am 04:35 Clear 17 -8.1 11 -11.4 77 77 WNW 15 24 30.33 1027 10 16.0934 0 0
4:55 am 04:55 Clear 18 -7.8 12 -11.3 76 76 NW 10 17 30.33 1027 10 16.0934 0 0
5:15 am 05:15 Clear 17 -8.2 11 -11.6 77 77 WNW 8 13 30.35 1028 10 16.0934 0 0
5:35 am 05:35 Clear 15 -9.7 9 -12.7 79 79 NW 8 13 30.38 1029 10 16.0934 0 0
5:55 am 05:55 Clear 13 -10.5 8 -13.2 81 81 NW 9 15 30.4 1029 10 16.0934 0 0
6:15 am 06:15 Clear 13 -10.4 9 -12.9 82 82 NW 8 13 30.4 1029 10 16.0934 0 0
6:35 am 06:35 Clear 14 -10 9 -12.7 81 81 NW 9 15 30.41 1030 10 16.0934 0 0
6:55 am 06:55 Clear 11 -11.7 6 -14.2 82 82 NW 9 15 30.43 1031 10 16.0934 0 0
7:15 am 07:15 Clear 10 -12.4 6 -14.7 83 83 NW 8 13 30.45 1031 10 16.0934 0 0
7:35 am 07:35 Sunny 8 -13.1 5 -15 86 86 NW 9 15 30.48 1032 10 16.0934 0 0
7:55 am 07:55 Sunny 11 -11.9 6 -14.2 83 83 NNW 9 15 30.49 1032 10 16.0934 0 0
8:15 am 08:15 Sunny 11 -11.5 6 -14.2 81 81 NNW 10 17 30.48 1032 10 16.0934 0 0
8:35 am 08:35 Sunny 12 -11 7 -14 79 79 NW 9 15 30.49 1032 10 16.0934 0 0
8:55 am 08:55 Sunny 13 -10.5 8 -13.6 78 78 NW 9 15 30.49 1033 10 16.0934 0 0
9:15 am 09:15 Sunny 14 -10 7 -14.1 72 72 NNW 10 17 30.52 1033 10 16.0934 0 0
9:35 am 09:35 Sunny 14 -9.8 7 -14 72 72 NNW 7 11 30.51 1033 10 16.0934 0 0
9:55 am 09:55 Sunny 15 -9.5 7 -13.8 71 71 NW 8 13 30.51 1033 10 16.0934 0 0
10:15 am 10:15 Sunny 16 -9.1 8 -13.6 70 70 NNW 10 17 30.52 1033 10 16.0934 0 0
10:35 am 10:35 Sunny 16 -9 8 -13.6 70 70 NNW 9 15 30.53 1034 10 16.0934 0 0
10:55 am 10:55 Sunny 17 -8.5 8 -13.5 68 68 NNW 9 15 30.53 1034 10 16.0934 0 0
11:15 am 11:15 Sunny 17 -8.2 8 -13.5 66 66 NW 7 11 30.53 1034 10 16.0934 0 0
11:30 am 11:30 Sunny 18 -8 8 -13.5 65 65 NW 7 11 30.54 1034 10 16.0934 0 0
11:55 am 11:55 Sunny 18 -7.7 8 -13.4 64 64 NNW 10 17 30.53 1034 10 16.0934 0 0
12:15 pm 12:15 Sunny 18 -7.6 9 -12.7 67 67 NW 8 13 30.53 1034 10 16.0934 0 0
12:35 pm 12:35 Sunny 18 -7.6 8 -13.1 65 65 NNW 9 15 30.52 1034 10 16.0934 0 0
12:55 pm 12:55 Sunny 19 -7.5 8 -13.5 63 63 NNW 9 15 30.52 1034 10 16.0934 0 0
1:15 pm 13:15 Sunny 19 -7.1 9 -13 63 63 NNW 10 17 30.52 1033 10 16.0934 0 0
1:35 pm 13:35 Sunny 19 -7.2 8 -13.2 63 63 N 9 15 30.51 1033 10 16.0934 0 0
1:55 pm 13:55 Sunny 19 -7.2 9 -12.9 64 64 NNW 7 11 30.51 1033 10 16.0934 0 0
2:15 pm 14:15 Sunny 19 -7.2 9 -12.7 65 65 N 8 13 30.49 1032 10 16.0934 0 0
2:35 pm 14:35 Sunny 19 -7.4 10 -12.5 67 67 N 10 17 30.48 1032 10 16.0934 0 0
2:55 pm 14:55 Sunny 19 -7.5 9 -12.7 67 67 N 8 13 30.48 1032 10 16.0934 0 0
3:15 pm 15:15 Sunny 19 -7.5 9 -12.7 67 67 N 6 9 30.48 1032 10 16.0934 0 0
3:35 pm 15:35 Sunny 19 -7.4 10 -12.3 68 68 N 5 7 30.48 1032 10 16.0934 0 0
3:55 pm 15:55 Sunny 19 -7.4 10 -12.5 67 67 NE 6 9 30.48 1032 10 16.0934 0 0
4:15 pm 16:15 Sunny 19 -7.5 9 -12.7 67 67 NNE 6 9 30.48 1032 10 16.0934 0 0
4:35 pm 16:35 Sunny 18 -8 9 -13 68 68 NNE 9 15 30.48 1032 10 16.0934 0 0
4:55 pm 16:55 Sunny 17 -8.3 9 -13 69 69 NE 9 15 30.48 1032 10 16.0934 0 0
5:15 pm 17:15 Sunny 17 -8.5 9 -13 70 70 NNE 3 6 30.49 1033 10 16.0934 0 0
5:35 pm 17:35 Sunny 17 -8.5 8 -13.2 69 69 Calm 30.51 1033 10 16.0934 0 0
5:55 pm 17:55 Sunny 16 -8.8 8 -13.2 71 71 Calm 30.5 1033 10 16.0934 0 0
6:15 pm 18:15 Sunny 13 -10.5 7 -13.7 78 78 ENE 5 7 30.51 1033 10 16.0934 0 0
6:35 pm 18:35 Clear 12 -11.2 6 -14.2 79 79 ENE 6 9 30.52 1033 10 16.0934 0 0
6:55 pm 18:55 Clear 12 -11.2 6 -14.3 78 78 E 5 7 30.52 1033 10 16.0934 0 0
7:15 pm 19:15 Clear 8 -13.3 4 -15.7 82 82 E 6 9 30.54 1034 10 16.0934 0 0
7:35 pm 19:35 Clear 6 -14.3 1 -17 80 80 ENE 7 11 30.55 1035 10 16.0934 0 0
7:55 pm 19:55 Clear 5 -14.9 1 -17.1 83 83 ENE 5 7 30.56 1035 10 16.0934 0 0
8:15 pm 20:15 Clear 5 -14.8 2 -16.8 85 85 E 5 7 30.56 1035 10 16.0934 0 0
8:35 pm 20:35 Clear 4 -15.3 1 -17.1 86 86 E 3 6 30.56 1035 10 16.0934 0 0
8:55 pm 20:55 Clear 4 -15.5 1 -17.2 87 87 E 3 6 30.57 1035 10 16.0934 0 0
9:15 pm 21:15 Clear 5 -15.1 2 -16.6 88 88 E 5 7 30.56 1035 10 16.0934 0 0
9:35 pm 21:35 Clear 2 -16.6 -1 -18.3 87 87 E 5 7 30.58 1035 10 16.0934 0 0
9:55 pm 21:55 Clear 1 -17.5 -2 -18.9 89 89 E 7 11 30.59 1036 10 16.0934 0 0
10:15 pm 22:15 Clear 7 -14.1 2 -16.5 82 82 E 7 11 30.56 1035 10 16.0934 0 0
10:35 pm 22:35 Clear 3 -15.9 0 -17.9 85 85 E 6 9 30.58 1036 10 16.0934 0 0
10:55 pm 22:55 Clear 3 -16 0 -17.6 88 88 E 5 7 30.58 1036 10 16.0934 0 0
11:15 pm 23:15 Clear 0 -17.8 -3 -19.3 88 88 ESE 3 6 30.6 1036 10 16.0934 0 0
11:35 pm 23:35 Clear 1 -17.2 -1 -18.2 92 92 ESE 3 6 30.59 1036 10 16.0934 0 0
11:55 pm 23:55 Clear 2 -16.9 0 -17.9 92 92 ESE 5 7 30.58 1036 10 16.0934 0 0

Powered by AerisWeather